SCP
-0 -0 -0 -0 0 0 -0 -0 -0 -0 -0 -0 -0 -0 -0 0 0 0 0 0 0 0 0 0 0 0 0 0 0 0 0 0 0 0 0 0 0 0 0 0 0 0 0
-0 -0 -0 -0 -0 -0 -0 -0 -0 -0 -0 0 0 -0 -0 -0 0 0 0 0 0 0 0 0 0 0 0 0 0 0 0 0 0 0 0 0 0 0 0 0 0 0 0
-0 -0 -0 -0 -0 -0 -0 -0 -0 -0 0 0 -0 -0 -0 -0 -0 -0 0 0 0 0 0 0 0 0 0 0 0 0 0 0 0 0 0 0 0 0 0 0 0 0 0
-0 -0 -0 -0 -0 -0 -0 -0 -0 -0 -0 -0 0 0 0 0 0 -0 0 0 0 0 0 0 0 0 0 0 0 0 1 1 0 0 0 0 0 0 0 0 0 0 0
-0 -0 -0 -0 -0 -0 -0 -0 -0 -0 -0 -0 -0 0 0 0 0 0 0 0 0 0 0 0 0 0 0 0 0 0 1 1 0 0 0 0 0 0 0 0 0 0 0
0 0 -0 -0 -0 -0 -0 -0 -0 -0 -0 -0 0 0 0 0 0 0 0 0 0 0 0 0 0 0 0 0 0 0 0 1 1 0 0 0 0 0 0 1 0 0 0
0 0 0 -0 -0 -0 -0 -0 -0 -0 -0 0 0 0 0 0 0 0 0 0 0 0 0 0 0 0 0 0 0 0 0 0 1 0 0 0 0 0 1 1 1 0 0
0 0 0 0 -0 -0 -0 -0 -0 -0 0 0 0 0 0 0 0 0 0 0 0 0 0 0 0 0 0 0 0 0 0 0 1 0 0 0 0 0 1 1 1 1 0
0 0 0 0 0 0 0 0 0 0 0 0 0 0 0 0 0 0 0 0 0 0 0 0 0 0 0 0 0 0 0 0 0 0 0 0 0 0 0 1 1 1 1
0 0 0 0 0 0 0 0 0 0 0 0 0 0 0 0 0 0 0 0 0 0 0 0 0 0 0 0 0 0 0 0 0 0 0 0 0 0 1 1 1 1 1
0 0 0 0 0 0 0 0 0 0 0 0 0 0 0 0 0 0 0 0 0 0 0 0 0 0 0 0 0 0 0 0 0 0 0 0 0 0 1 1 1 1 1
0 0 0 0 0 0 0 0 0 0 0 0 0 0 0 0 0 0 0 0 0 0 0 0 0 0 0 0 0 0 0 0 0 0 0 0 0 0 0 1 1 1 1
0 0 0 0 0 0 0 0 0 0 0 0 0 0 0 0 0 0 0 0 0 0 0 0 0 0 0 0 0 0 0 0 0 0 0 0 0 0 1 1 1 1 2
0 0 0 0 0 0 0 -0 -0 -0 -0 0 0 0 0 0 0 0 0 0 0 0 0 0 0 0 0 0 0 0 0 0 0 0 0 0 0 0 1 2 2 2 1
0 0 0 0 0 0 0 0 -0 -0 -0 -0 0 0 0 0 0 0 0 0 0 -0 -0 0 0 0 0 0 0 0 0 0 0 0 0 0 0 0 1 1 2 2 2
0 0 0 0 0 0 0 0 -0 -0 -0 -0 -0 -0 -0 -0 0 0 0 0 0 0 0 -0 0 0 0 0 0 0 0 0 0 0 0 0 0 0 0 1 2 2 2
0 0 0 0 0 0 0 -0 -0 -0 -0 -0 -0 -0 -0 -0 -0 -0 -0 -0 0 0 0 0 -0 0 0 0 0 0 0 0 0 0 0 0 0 0 0 1 1 2 2
0 0 0 0 0 0 -0 -0 -0 -0 -0 -0 -0 -0 -0 -0 -0 -0 -0 -0 -0 0 0 0 0 -0 0 0 0 0 0 0 0 0 0 0 0 0 0 0 0 1 2
0 0 0 0 0 0 -0 -0 -0 -0 -0 -0 -0 -0 -0 0 -0 -0 -0 0 0 0 0 0 0 0 0 -0 0 0 0 0 0 0 0 0 0 0 0 0 0 0 1
0 0 0 0 0 0 -0 -0 -0 -0 0 0 0 -0 0 0 0 0 0 0 0 0 0 0 0 0 0 0 0 -0 0 0 0 0 0 0 0 0 0 0 0 0 0
0 0 0 0 0 0 -0 -0 -0 -0 0 0 0 0 0 0 0 0 0 0 0 0 0 0 0 0 0 0 -0 -0 -0 0 0 0 0 0 0 0 0 0 0 0 0
0 0 0 0 0 0 -0 -0 -0 -0 -0 0 0 0 0 0 0 0 0 0 0 0 0 0 0 0 0 0 0 -0 -0 0 0 0 0 0 0 0 0 0 0 0 0
0 0 0 0 0 0 -0 -0 -0 0 0 0 0 0 0 0 0 0 0 0 0 0 0 0 0 0 0 0 0 0 0 0 0 0 0 0 0 0 0 0 0 0 0
0 0 0 0 0 -0 -0 -0 0 0 0 0 0 0 0 0 0 0 0 0 0 0 0 0 0 0 0 0 0 0 0 0 0 0 0 0 0 0 0 0 0 0 0
0 0 0 0 0 -0 -0 -0 0 0 0 0 0 0 0 0 0 0 0 0 0 0 0 0 0 0 0 0 0 0 0 -0 -0 -0 0 0 0 0 0 0 0 0 0
0 0 0 0 0 -0 -0 0 0 0 0 0 0 0 0 0 0 0 0 0 0 0 0 0 0 0 0 0 0 0 0 -0 -0 -0 0 0 0 0 0 0 0 0 0
Wind_Speed_500mb
22 23 24 23 16 8 8 10 10 10 11 15 19 17 16 18 20 20 20 24 23 23 27 29 31 30 27 25 23 23 29 27 25 22 19 18 18 15 15 17 20 26 28
11 11 10 9 9 6 8 8 11 12 14 17 19 20 20 20 22 25 30 29 28 27 26 31 32 34 35 31 28 27 29 33 30 30 21 19 20 17 16 18 23 28 30
12 12 13 12 5 2 3 5 9 13 16 19 20 22 26 29 28 29 30 27 26 28 29 28 32 34 36 38 34 32 33 35 34 33 30 24 22 23 19 22 25 28 31
17 19 17 16 11 12 12 11 11 11 13 18 22 25 27 30 34 36 36 35 32 32 33 32 30 34 34 39 39 37 37 36 37 37 36 30 27 27 25 24 27 30 33
16 18 18 19 20 16 14 17 25 23 21 20 19 25 29 32 35 38 41 41 40 40 39 38 37 35 34 37 41 40 42 39 39 39 42 35 34 33 32 29 27 31 34
14 17 17 18 19 20 21 17 19 24 31 31 28 27 30 31 35 40 43 44 45 44 45 45 43 39 37 36 39 42 45 44 43 44 46 43 41 39 37 36 35 35 37
14 18 22 23 23 20 21 20 20 20 22 28 35 38 37 35 37 40 41 45 45 47 47 46 47 44 41 41 39 42 46 50 48 49 48 49 48 45 44 42 39 37 39
13 16 18 20 22 24 25 27 27 26 27 26 30 38 43 45 46 45 45 44 46 47 50 51 51 52 49 47 47 45 47 53 52 55 52 54 53 51 49 46 43 41 40
7 10 14 16 19 20 22 24 25 25 26 28 31 33 36 44 49 52 52 51 51 48 52 56 54 54 55 54 52 53 51 54 57 60 59 58 57 56 56 51 48 46 45
2 7 10 13 18 21 24 27 30 32 33 33 34 36 38 35 39 51 53 57 56 59 55 56 61 60 59 60 60 58 57 55 63 64 64 66 64 64 63 59 54 51 51
4 7 13 17 21 24 28 32 34 36 37 37 38 41 41 43 45 41 42 52 56 59 59 62 61 64 65 64 65 65 62 65 63 71 71 73 71 71 70 67 60 58 57
4 11 19 24 30 32 36 39 41 42 42 41 41 42 44 45 47 50 51 47 49 55 60 62 65 66 71 69 70 66 70 69 72 75 80 77 75 76 79 74 68 63 65
5 12 19 27 32 36 40 43 44 47 47 47 45 45 43 45 47 50 54 57 57 52 58 63 64 65 70 76 74 74 74 76 77 79 85 83 80 82 84 77 74 67 67
6 14 22 27 33 37 40 45 48 50 52 51 52 52 55 56 54 58 56 60 63 62 60 57 63 64 72 73 82 82 81 84 85 85 88 89 88 89 90 87 83 76 74
7 13 20 27 33 39 42 45 49 52 55 57 57 54 54 58 63 66 66 67 67 67 68 66 63 65 62 70 78 86 91 89 90 92 94 91 93 94 94 96 91 85 80
7 12 20 27 32 36 40 44 48 52 56 60 64 67 65 66 68 70 72 72 72 73 72 76 70 72 77 64 66 88 89 98 96 98 98 96 96 99 103 100 100 95 92
7 15 20 26 31 37 42 45 48 53 58 62 64 66 71 75 78 79 81 81 75 72 80 81 82 77 79 85 74 70 92 95 101 100 100 101 100 101 107 105 103 100 97
9 14 22 27 32 38 43 48 53 56 60 64 65 68 71 75 78 84 88 85 83 82 74 79 84 88 85 83 89 68 89 97 101 105 102 101 102 105 107 108 107 104 101
14 18 24 28 35 41 46 50 52 58 63 66 68 70 71 73 77 83 87 91 89 88 90 82 82 82 89 89 91 89 57 94 103 104 108 103 102 107 107 107 112 106 106
20 21 24 32 39 45 52 55 58 60 62 67 69 71 74 79 81 83 85 87 88 91 90 90 84 79 84 85 92 104 91 64 108 106 112 104 105 107 107 107 110 113 109
22 21 25 33 41 48 54 63 67 68 69 72 75 76 79 82 83 90 94 94 89 85 86 80 74 77 84 78 83 98 109 86 85 109 111 111 109 109 108 112 112 110 112
24 21 25 35 43 48 54 60 67 72 76 78 81 83 85 85 88 92 95 96 91 88 81 82 76 77 79 68 59 58 58 92 62 110 113 117 114 117 116 119 118 120 116
23 21 26 34 41 48 55 61 66 72 77 83 85 87 89 92 94 96 95 93 88 82 83 82 75 75 82 73 65 42 28 30 40 70 103 120 116 118 118 120 121 122 121
22 21 25 34 44 51 57 62 65 72 79 82 88 91 94 96 98 102 100 92 90 90 86 82 80 65 83 87 67 60 67 78 35 43 45 99 113 112 111 102 115 127 134
20 20 25 37 46 52 55 60 65 70 75 84 89 95 97 100 98 103 104 96 90 93 85 77 77 73 69 85 77 65 63 70 77 54 74 69 101 112 109 87 98 99 107
19 20 27 39 45 50 55 59 64 71 77 82 90 97 99 102 103 102 104 103 89 89 79 68 73 81 80 66 79 77 73 62 57 74 71 108 71 99 120 114 90 81 117
Wind_Direction_500mb
17 20 3 10 12 358 326 308 303 294 296 309 315 309 301 299 301 300 296 295 290 277 272 275 279 278 275 272 256 241 253 254 256 259 250 264 264 252 235 221 212 195 188
16 358 17 25 29 26 353 329 319 300 295 300 304 304 300 290 292 299 304 303 303 301 288 276 272 277 278 271 266 246 248 251 248 252 253 254 260 253 231 213 205 198 191
349 336 334 341 336 260 277 290 317 305 300 298 296 290 297 296 293 295 300 300 299 301 305 295 280 270 274 275 267 255 246 253 249 247 250 248 248 250 235 213 202 202 198
339 324 334 328 315 296 274 259 248 270 284 288 292 292 292 290 288 291 296 298 299 301 302 300 288 278 268 270 267 260 251 249 250 249 246 247 240 235 235 218 207 205 202
322 324 344 340 321 307 282 268 262 259 257 264 284 289 288 288 288 285 288 289 293 296 298 296 295 284 275 264 265 258 252 248 248 245 249 243 236 229 222 220 219 208 206
333 1 8 356 355 336 325 314 289 277 272 271 269 271 275 281 284 285 283 284 286 287 289 293 292 289 280 269 261 257 249 251 248 244 240 244 238 231 224 224 224 222 210
65 54 50 44 35 15 3 349 337 320 299 289 282 277 277 279 281 278 284 285 284 284 284 284 286 284 280 277 268 260 249 249 250 247 239 234 234 230 224 224 222 223 214
66 65 59 52 47 44 39 32 24 9 350 326 300 287 281 278 277 279 282 280 282 281 280 279 279 278 277 274 271 264 258 246 249 248 240 235 231 229 224 221 221 218 210
64 59 49 39 34 26 18 13 6 357 347 340 333 325 302 285 281 277 278 279 279 278 280 278 275 273 273 271 267 266 261 253 247 246 243 235 228 231 225 222 222 221 212
111 51 38 27 22 18 14 5 356 346 335 324 316 312 310 313 296 278 276 274 274 275 272 277 276 270 269 268 266 264 263 257 249 246 241 237 229 228 225 224 223 223 218
68 30 23 17 14 10 5 2 356 350 343 333 320 311 304 300 300 299 286 275 274 271 272 269 271 269 268 266 262 264 260 257 252 246 243 237 230 227 224 224 223 224 222
355 6 7 2 3 4 4 3 359 356 350 344 334 324 318 311 301 296 294 294 285 273 268 267 266 268 261 263 263 258 257 257 255 248 245 240 231 224 223 226 223 222 221
348 356 356 1 1 3 4 4 360 355 350 347 340 333 324 317 312 304 293 286 288 289 275 266 267 271 266 263 262 261 256 256 255 252 245 241 234 226 224 224 222 221 220
355 1 3 1 2 4 4 2 358 355 352 348 344 338 331 325 319 315 310 301 292 290 289 278 268 271 271 268 262 259 258 256 254 253 250 242 236 230 226 224 223 222 223
321 343 350 357 0 1 359 358 356 354 351 348 342 339 332 327 324 319 313 308 301 294 291 285 275 267 270 271 269 262 257 255 255 252 251 247 239 231 229 226 225 223 224
330 343 353 354 357 357 356 357 356 353 350 344 342 343 340 334 330 325 319 313 304 299 294 289 282 273 266 267 274 266 263 256 254 253 250 248 242 235 231 229 227 225 226
319 341 347 352 355 355 357 358 354 351 346 342 340 338 337 336 333 329 324 319 311 300 294 291 287 281 273 264 269 275 262 259 254 252 250 248 244 237 232 230 227 227 226
304 326 342 348 350 352 354 353 352 348 343 339 337 336 337 336 333 329 326 322 315 307 296 289 288 287 280 274 265 271 267 260 255 253 250 246 244 238 233 230 229 226 227
295 319 333 340 344 347 346 346 347 343 340 336 333 333 333 331 330 326 322 320 315 307 299 292 285 286 287 279 270 267 271 259 255 250 248 243 243 239 233 230 230 227 223
282 310 328 342 345 345 344 343 340 338 335 332 331 332 333 333 331 326 322 319 315 306 295 289 291 285 281 286 282 272 263 273 252 245 246 242 240 236 233 234 232 229 228
276 305 327 339 341 342 342 339 336 338 336 333 330 332 334 334 332 332 330 325 318 307 292 283 283 282 283 284 292 280 272 272 255 244 241 243 239 232 232 231 232 228 226
272 305 325 337 340 341 341 339 338 337 335 331 331 333 333 333 334 332 331 325 316 306 296 275 277 281 279 280 286 295 288 266 270 236 242 236 235 234 232 231 231 228 227
270 303 321 335 339 339 338 336 335 330 326 328 330 330 329 330 331 330 330 325 314 303 292 279 271 272 275 276 275 266 278 252 334 227 230 232 236 231 231 233 228 227 225
265 298 317 335 337 337 336 335 332 328 326 327 325 326 329 329 327 328 328 324 311 303 292 283 267 269 270 270 272 265 263 255 274 296 234 229 237 234 228 230 230 230 227
256 292 318 330 335 333 335 332 328 325 324 323 325 325 325 323 325 326 325 322 310 300 293 281 267 260 267 265 264 262 270 262 255 254 271 298 217 226 224 222 224 224 227
267 297 317 326 330 333 331 328 327 325 323 324 325 323 324 323 324 325 323 318 310 298 293 285 270 257 255 261 259 259 259 259 260 243 252 254 247 216 220 215 224 227 213
Wind_Speed_850mb
22 23 24 23 16 8 8 10 10 10 11 15 19 17 16 18 20 20 20 24 23 23 27 29 31 30 27 25 23 23 29 27 25 22 19 18 18 15 15 17 20 26 28
11 11 10 9 9 6 8 8 11 12 14 17 19 20 20 20 22 25 30 29 28 27 26 31 32 34 35 31 28 27 29 33 30 30 21 19 20 17 16 18 23 28 30
12 12 13 12 5 2 3 5 9 13 16 19 20 22 26 29 28 29 30 27 26 28 29 28 32 34 36 38 34 32 33 35 34 33 30 24 22 23 19 22 25 28 31
17 19 17 16 11 12 12 11 11 11 13 18 22 25 27 30 34 36 36 35 32 32 33 32 30 34 34 39 39 37 37 36 37 37 36 30 27 27 25 24 27 30 33
16 18 18 19 20 16 14 17 25 23 21 20 19 25 29 32 35 38 41 41 40 40 39 38 37 35 34 37 41 40 42 39 39 39 42 35 34 33 32 29 27 31 34
14 17 17 18 19 20 21 17 19 24 31 31 28 27 30 31 35 40 43 44 45 44 45 45 43 39 37 36 39 42 45 44 43 44 46 43 41 39 37 36 35 35 37
14 18 22 23 23 20 21 20 20 20 22 28 35 38 37 35 37 40 41 45 45 47 47 46 47 44 41 41 39 42 46 50 48 49 48 49 48 45 44 42 39 37 39
13 16 18 20 22 24 25 27 27 26 27 26 30 38 43 45 46 45 45 44 46 47 50 51 51 52 49 47 47 45 47 53 52 55 52 54 53 51 49 46 43 41 40
7 10 14 16 19 20 22 24 25 25 26 28 31 33 36 44 49 52 52 51 51 48 52 56 54 54 55 54 52 53 51 54 57 60 59 58 57 56 56 51 48 46 45
2 7 10 13 18 21 24 27 30 32 33 33 34 36 38 35 39 51 53 57 56 59 55 56 61 60 59 60 60 58 57 55 63 64 64 66 64 64 63 59 54 51 51
4 7 13 17 21 24 28 32 34 36 37 37 38 41 41 43 45 41 42 52 56 59 59 62 61 64 65 64 65 65 62 65 63 71 71 73 71 71 70 67 60 58 57
4 11 19 24 30 32 36 39 41 42 42 41 41 42 44 45 47 50 51 47 49 55 60 62 65 66 71 69 70 66 70 69 72 75 80 77 75 76 79 74 68 63 65
5 12 19 27 32 36 40 43 44 47 47 47 45 45 43 45 47 50 54 57 57 52 58 63 64 65 70 76 74 74 74 76 77 79 85 83 80 82 84 77 74 67 67
6 14 22 27 33 37 40 45 48 50 52 51 52 52 55 56 54 58 56 60 63 62 60 57 63 64 72 73 82 82 81 84 85 85 88 89 88 89 90 87 83 76 74
7 13 20 27 33 39 42 45 49 52 55 57 57 54 54 58 63 66 66 67 67 67 68 66 63 65 62 70 78 86 91 89 90 92 94 91 93 94 94 96 91 85 80
7 12 20 27 32 36 40 44 48 52 56 60 64 67 65 66 68 70 72 72 72 73 72 76 70 72 77 64 66 88 89 98 96 98 98 96 96 99 103 100 100 95 92
7 15 20 26 31 37 42 45 48 53 58 62 64 66 71 75 78 79 81 81 75 72 80 81 82 77 79 85 74 70 92 95 101 100 100 101 100 101 107 105 103 100 97
9 14 22 27 32 38 43 48 53 56 60 64 65 68 71 75 78 84 88 85 83 82 74 79 84 88 85 83 89 68 89 97 101 105 102 101 102 105 107 108 107 104 101
14 18 24 28 35 41 46 50 52 58 63 66 68 70 71 73 77 83 87 91 89 88 90 82 82 82 89 89 91 89 57 94 103 104 108 103 102 107 107 107 112 106 106
20 21 24 32 39 45 52 55 58 60 62 67 69 71 74 79 81 83 85 87 88 91 90 90 84 79 84 85 92 104 91 64 108 106 112 104 105 107 107 107 110 113 109
22 21 25 33 41 48 54 63 67 68 69 72 75 76 79 82 83 90 94 94 89 85 86 80 74 77 84 78 83 98 109 86 85 109 111 111 109 109 108 112 112 110 112
24 21 25 35 43 48 54 60 67 72 76 78 81 83 85 85 88 92 95 96 91 88 81 82 76 77 79 68 59 58 58 92 62 110 113 117 114 117 116 119 118 120 116
23 21 26 34 41 48 55 61 66 72 77 83 85 87 89 92 94 96 95 93 88 82 83 82 75 75 82 73 65 42 28 30 40 70 103 120 116 118 118 120 121 122 121
22 21 25 34 44 51 57 62 65 72 79 82 88 91 94 96 98 102 100 92 90 90 86 82 80 65 83 87 67 60 67 78 35 43 45 99 113 112 111 102 115 127 134
20 20 25 37 46 52 55 60 65 70 75 84 89 95 97 100 98 103 104 96 90 93 85 77 77 73 69 85 77 65 63 70 77 54 74 69 101 112 109 87 98 99 107
19 20 27 39 45 50 55 59 64 71 77 82 90 97 99 102 103 102 104 103 89 89 79 68 73 81 80 66 79 77 73 62 57 74 71 108 71 99 120 114 90 81 117
Wind_Direction_850mb
17 20 3 10 12 358 326 308 303 294 296 309 315 309 301 299 301 300 296 295 290 277 272 275 279 278 275 272 256 241 253 254 256 259 250 264 264 252 235 221 212 195 188
16 358 17 25 29 26 353 329 319 300 295 300 304 304 300 290 292 299 304 303 303 301 288 276 272 277 278 271 266 246 248 251 248 252 253 254 260 253 231 213 205 198 191
349 336 334 341 336 260 277 290 317 305 300 298 296 290 297 296 293 295 300 300 299 301 305 295 280 270 274 275 267 255 246 253 249 247 250 248 248 250 235 213 202 202 198
339 324 334 328 315 296 274 259 248 270 284 288 292 292 292 290 288 291 296 298 299 301 302 300 288 278 268 270 267 260 251 249 250 249 246 247 240 235 235 218 207 205 202
322 324 344 340 321 307 282 268 262 259 257 264 284 289 288 288 288 285 288 289 293 296 298 296 295 284 275 264 265 258 252 248 248 245 249 243 236 229 222 220 219 208 206
333 1 8 356 355 336 325 314 289 277 272 271 269 271 275 281 284 285 283 284 286 287 289 293 292 289 280 269 261 257 249 251 248 244 240 244 238 231 224 224 224 222 210
65 54 50 44 35 15 3 349 337 320 299 289 282 277 277 279 281 278 284 285 284 284 284 284 286 284 280 277 268 260 249 249 250 247 239 234 234 230 224 224 222 223 214
66 65 59 52 47 44 39 32 24 9 350 326 300 287 281 278 277 279 282 280 282 281 280 279 279 278 277 274 271 264 258 246 249 248 240 235 231 229 224 221 221 218 210
64 59 49 39 34 26 18 13 6 357 347 340 333 325 302 285 281 277 278 279 279 278 280 278 275 273 273 271 267 266 261 253 247 246 243 235 228 231 225 222 222 221 212
111 51 38 27 22 18 14 5 356 346 335 324 316 312 310 313 296 278 276 274 274 275 272 277 276 270 269 268 266 264 263 257 249 246 241 237 229 228 225 224 223 223 218
68 30 23 17 14 10 5 2 356 350 343 333 320 311 304 300 300 299 286 275 274 271 272 269 271 269 268 266 262 264 260 257 252 246 243 237 230 227 224 224 223 224 222
355 6 7 2 3 4 4 3 359 356 350 344 334 324 318 311 301 296 294 294 285 273 268 267 266 268 261 263 263 258 257 257 255 248 245 240 231 224 223 226 223 222 221
348 356 356 1 1 3 4 4 360 355 350 347 340 333 324 317 312 304 293 286 288 289 275 266 267 271 266 263 262 261 256 256 255 252 245 241 234 226 224 224 222 221 220
355 1 3 1 2 4 4 2 358 355 352 348 344 338 331 325 319 315 310 301 292 290 289 278 268 271 271 268 262 259 258 256 254 253 250 242 236 230 226 224 223 222 223
321 343 350 357 0 1 359 358 356 354 351 348 342 339 332 327 324 319 313 308 301 294 291 285 275 267 270 271 269 262 257 255 255 252 251 247 239 231 229 226 225 223 224
330 343 353 354 357 357 356 357 356 353 350 344 342 343 340 334 330 325 319 313 304 299 294 289 282 273 266 267 274 266 263 256 254 253 250 248 242 235 231 229 227 225 226
319 341 347 352 355 355 357 358 354 351 346 342 340 338 337 336 333 329 324 319 311 300 294 291 287 281 273 264 269 275 262 259 254 252 250 248 244 237 232 230 227 227 226
304 326 342 348 350 352 354 353 352 348 343 339 337 336 337 336 333 329 326 322 315 307 296 289 288 287 280 274 265 271 267 260 255 253 250 246 244 238 233 230 229 226 227
295 319 333 340 344 347 346 346 347 343 340 336 333 333 333 331 330 326 322 320 315 307 299 292 285 286 287 279 270 267 271 259 255 250 248 243 243 239 233 230 230 227 223
282 310 328 342 345 345 344 343 340 338 335 332 331 332 333 333 331 326 322 319 315 306 295 289 291 285 281 286 282 272 263 273 252 245 246 242 240 236 233 234 232 229 228
276 305 327 339 341 342 342 339 336 338 336 333 330 332 334 334 332 332 330 325 318 307 292 283 283 282 283 284 292 280 272 272 255 244 241 243 239 232 232 231 232 228 226
272 305 325 337 340 341 341 339 338 337 335 331 331 333 333 333 334 332 331 325 316 306 296 275 277 281 279 280 286 295 288 266 270 236 242 236 235 234 232 231 231 228 227
270 303 321 335 339 339 338 336 335 330 326 328 330 330 329 330 331 330 330 325 314 303 292 279 271 272 275 276 275 266 278 252 334 227 230 232 236 231 231 233 228 227 225
265 298 317 335 337 337 336 335 332 328 326 327 325 326 329 329 327 328 328 324 311 303 292 283 267 269 270 270 272 265 263 255 274 296 234 229 237 234 228 230 230 230 227
256 292 318 330 335 333 335 332 328 325 324 323 325 325 325 323 325 326 325 322 310 300 293 281 267 260 267 265 264 262 270 262 255 254 271 298 217 226 224 222 224 224 227
267 297 317 326 330 333 331 328 327 325 323 324 325 323 324 323 324 325 323 318 310 298 293 285 270 257 255 261 259 259 259 259 260 243 252 254 247 216 220 215 224 227 213